Location: Mount Kobau Star Party
(49.1167°N, 119.7333°W)
Time: 10:40:51
(UTC-07:00)

Envisat - Pass Details

Date: 20 April 2026
Orbit: 761 x 762 km, 98.4° (Epoch: 17 May)

Event Time Altitude Azimuth Distance (km) Brightness Sun altitude
Rises 02:48:47 0° 23° (NNE) 3,233 7.6 -24.6°
Reaches altitude 10° 02:51:24 10° 34° (NE) 2,301 6.5 -24.3°
Maximum altitude 02:55:46 29° 94° (E) 1,385 4.5 -24.0°
Enters shadow 02:58:16 19° 137° (SE) 1,736 4.7 -23.8°
